Location: Donneloye
(46.7450°N, 6.7156°E)
Time: 13:07:16
(UTC+00:00)

Daily predictions for brighter satellites

Satellite Brightness Start Highest point End
(mag) Time Altitude Azimuth Time Altitude Azimuth Time Altitude Azimuth
BREEZE-M DEB (TANK) 3.9 19:24:49 10° W 19:29:05 75° S 19:36:26 10° ESE
Cosmos 1666 Rocket 4.4 19:26:14 10° N 19:30:17 34° ENE 19:34:16 10° SE
USA 307 4.2 19:29:58 10° NW 19:33:55 36° NNE 19:37:53 10° E
Cosmos 968 Rocket 3.9 19:32:11 10° SSW 19:37:25 72° WNW 19:42:39 10° NNE
NOSS 3-3 (A) 4.3 19:32:57 10° S 19:38:12 40° ESE 19:44:06 10° NE
NOSS 3-3 (C) 4.3 19:33:05 10° S 19:38:19 39° ESE 19:44:12 10° NE
ATLAS 2AS CENTAUR R/B 4.4 19:34:44 10° NW 19:41:06 28° NNE 19:47:05 10° E
Intercosmos 24 3.7 19:37:29 10° S 19:41:06 58° E 19:44:40 10° NNE
Cosmos 1354 Rocket 4.2 19:36:31 10° S 19:41:33 51° ESE 19:46:38 10° NNE
S3M 4.0 19:37:15 10° S 19:43:37 76° E 19:49:57 10° NNE
Sich 1 3.0 19:40:12 10° N 19:44:34 79° E 19:48:55 10° SSE
SJ 16-02 3.3 19:42:53 10° ESE 19:44:38 12° E 19:46:23 10° ENE
OBJECT-B 2.2 19:43:30 10° SSW 19:46:33 38° W 19:49:38 10° NNW
USA 308 4.1 19:43:34 10° NW 19:47:37 39° NNE 19:51:39 10° E
SPOT 1/Viking Rocket 4.4 19:43:08 10° SE 19:47:50 36° ENE 19:52:32 10° N
Cosmos 2315 Rocket 4.4 19:43:25 10° SSE 19:49:26 46° E 19:55:28 10° NNE
Cosmos 1500 4.3 19:50:09 10° NNE 19:53:26 27° ENE 19:56:07 13° SE
BREEZE M DEB (TANK) 2.8 19:50:38 10° W 19:56:57 57° N 19:59:25 10° E
Terra 3.8 19:54:46 10° E 19:57:32 16° ENE 20:00:19 10° NNE
Cosmos 2082 Rocket 3.6 19:54:39 10° N 19:59:17 25° NE 20:03:54 10° ESE
OE (NEXTSAT) 4.4 19:57:50 10° W 20:01:16 67° SSW 20:04:07 14° ESE
Cosmos 1151 Rocket 3.2 19:57:45 10° S 20:01:59 53° E 20:06:16 10° NNE
SPOT 3 Rocket 3.6 19:57:11 10° SSE 20:02:19 73° ENE 20:07:28 10° N
X-37B 1.3 19:59:36 10° W 20:02:36 39° SSW 20:04:43 17° SE
CREW DRAGON DEMO-1 DEB 3.7 20:00:24 10° NW 20:02:54 36° NNE 20:05:17 11° E
Cosmos 1437 Rocket 4.1 19:59:27 10° SSW 20:03:09 42° WNW 20:06:58 10° N
SPOT 5 4.4 19:59:20 11° ESE 20:03:09 26° ENE 20:07:26 10° N
COSMOS 2406 3.7 20:00:32 10° NNW 20:06:01 47° NE 20:10:34 15° SE
Cosmos 2084 3.4 20:02:25 10° SSW 20:06:26 54° SE 20:10:35 10° NE
Resurs 01 Rocket 1.6 20:02:31 10° SSE 20:06:58 88° ENE 20:11:26 10° NNW
USA 290 3.6 20:05:13 10° NW 20:08:13 36° WSW 20:11:13 10° S
Meteor 1-20 Rocket 4.5 20:05:03 10° NNW 20:10:37 69° W 20:16:04 10° S
Cosmos 1933 3.8 20:09:41 10° SSW 20:13:41 62° W 20:17:42 10° N
Cosmos 773 Rocket 4.0 20:13:05 10° NNW 20:18:25 81° ENE 20:22:41 16° SSE
MetOp-B 4.1 20:15:10 12° SSE 20:20:05 81° ENE 20:25:28 10° NNW
Cosmos 1271 Rocket 4.2 20:19:16 18° ESE 20:20:35 21° E 20:23:39 10° NE
Cosmos 2278 Rocket 2.5 20:19:21 10° S 20:24:41 44° ESE 20:30:02 10° NE
Spot 2 Rocket 3.7 20:22:06 18° SE 20:25:45 55° ENE 20:30:42 10° N
Cosmos 1602 4.1 20:22:08 10° NNW 20:25:58 61° W 20:29:33 12° S
BREEZE-M DEB (TANK) 2.1 20:24:17 10° WNW 20:26:26 42° N 20:27:56 16° ENE
Cosmos 1782 2.9 20:23:21 10° SSW 20:27:21 81° W 20:31:21 10° N
Landsat 7 3.9 20:23:02 12° S 20:27:25 77° WSW 20:32:12 10° NNW
USA 305 3.3 20:24:01 10° NW 20:28:14 57° NNE 20:31:23 17° E
IGS 5A 3.8 20:24:31 11° S 20:28:24 62° W 20:32:31 10° NNW
GPS 2-04 Rocket1 4.5 20:26:13 10° SSW 20:28:41 16° S 20:28:41 16° S
Cosmos 1844 Rocket 4.4 20:24:06 10° WSW 20:29:12 36° NW 20:34:23 10° NNE
Cosmos 1242 Rocket 3.8 20:26:37 10° SSW 20:30:01 40° WNW 20:33:23 10° N
Cosmos 1515 Rocket 3.8 20:29:37 18° SSE 20:32:42 51° E 20:36:58 10° NNE
ERS-1 Rocket 3.5 20:30:20 20° SE 20:33:26 44° ENE 20:38:11 10° N
BREEZE-M DEB (TANK) 4.2 20:26:16 10° WNW 20:33:44 36° SW 20:35:39 20° S
CZ-4C R/B 3.0 20:30:22 10° NW 20:37:37 90° SW 20:43:47 20° SE
Cosmos 1633 Rocket 3.6 20:35:28 10° NNW 20:39:46 55° W 20:43:38 13° S
Akebono 4.5 20:41:24 10° NNW 20:43:36 46° WSW 20:43:57 40° SW
Meteor 1-11 Rocket 4.4 20:38:52 10° N 20:44:35 44° ENE 20:47:53 23° SE
deb Kosmos-1763 4.0 20:43:07 10° NNW 20:46:39 64° ENE 20:47:57 35° SE
ATLAS 5 CENTAUR R/B 3.4 20:41:30 10° NW 20:46:47 38° WSW 20:51:47 14° S
USA 306 3.0 20:43:20 10° NW 20:47:37 71° NNE 20:49:58 25° ESE
Cosmos 1812 2.6 20:47:18 21° S 20:49:47 83° E 20:53:40 10° N
Cosmos 1328 Rocket 4.0 20:45:27 10° SSW 20:49:50 61° WNW 20:54:14 10° N
SWARM C 4.5 20:47:45 10° N 20:51:05 82° W 20:52:33 31° S
SWARM A 4.2 20:47:53 10° N 20:51:12 79° W 20:52:43 30° S
Cosmos 1777 Rocket 4.0 20:46:25 10° SSW 20:51:38 86° WNW 20:56:52 10° NNE
Cosmos 1470 Rocket 3.8 20:47:37 10° NNW 20:52:07 72° W 20:55:01 21° S
Cosmos 1340 Rocket 4.5 20:51:16 10° NNE 20:54:23 21° ENE 20:55:28 19° E
ARIANE 5 R/B 2.5 20:52:22 26° SSE 20:54:45 87° WSW 20:59:07 10° NNW
CARTOSAT-1 3.5 20:56:43 28° S 20:58:57 85° WSW 21:03:17 10° NNW
Cosmos 1666 2.5 20:55:24 10° N 20:59:09 81° E 21:00:28 38° SSE
Cosmos 1833 Rocket 2.8 20:58:15 10° NNW 21:03:53 69° WSW 21:07:04 26° S
Meteor 1-5 Rocket 4.2 20:59:44 10° NNW 21:05:07 74° W 21:08:22 24° S
Cosmos 1933 Rocket 3.6 21:02:01 10° NNW 21:06:22 77° W 21:08:26 30° S
BREEZE-M R/B 2.8 21:04:02 10° W 21:06:24 45° N 21:07:49 21° ENE
Cosmos 2154 Rocket 4.2 21:00:16 10° N 21:06:31 57° ENE 21:09:43 29° SE
Cosmos 923 Rocket 4.4 21:02:42 10° NNW 21:07:52 54° ENE 21:10:12 31° SE
Cosmos 1898 Rocket 4.5 21:07:15 27° ESE 21:08:04 28° E 21:12:33 10° NE
Meteor 1-10 Rocket 4.1 21:05:30 22° S 21:09:13 77° E 21:14:53 10° NNE
Cosmos 1536 3.4 21:05:49 10° N 21:09:40 41° ENE 21:10:33 36° ESE
Cosmos 2184 Rocket 3.9 21:07:44 10° N 21:14:00 89° ENE 21:17:33 27° S
Cosmos 1743 4.1 21:10:46 10° NNE 21:14:00 25° ENE 21:14:28 24° E
USA 307 2.8 21:09:58 10° WNW 21:14:15 85° SSW 21:15:37 43° SE
H-2A R/B 3.6 21:13:15 10° NNE 21:17:23 55° E 21:18:18 44° SSE
Cosmos 2074 Rocket 4.0 21:12:11 10° N 21:18:31 82° W 21:22:13 27° S
NOSS 3-4 (A) 3.8 21:12:50 10° NW 21:19:50 90° E 21:24:07 30° SE
NOSS 3-4 (C) 3.8 21:12:56 10° NW 21:19:57 89° ENE 21:24:12 30° SE
Cosmos 990 Rocket 4.4 21:20:01 36° SE 21:21:21 44° ESE 21:26:19 10° NNE
SJ 16-02 1.5 21:19:30 20° SSW 21:22:33 75° WNW 21:27:01 10° NNE
Nadezhda 1 Rocket 4.0 21:19:52 29° S 21:23:14 68° E 21:29:26 10° NNE
Cosmos 2297 4.4 21:22:46 32° SE 21:23:41 34° ESE 21:28:44 10° NE
Cosmos 1733 Rocket 4.3 21:23:26 10° NNE 21:27:07 26° ENE 21:27:49 25° E
USA 308 2.9 21:23:34 10° WNW 21:27:51 70° SW 21:28:43 53° SSE
ATLAS 2AS CENTAUR R/B 2.9 21:25:58 10° NW 21:33:25 71° NE 21:37:04 30° SE
Terra 1.8 21:33:01 41° S 21:34:42 77° WSW 21:39:29 10° NNW
Iridium 4 Rocket 4.2 21:30:58 21° SSW 21:34:52 62° W 21:40:45 10° N
USA 215 4.5 21:30:28 10° ENE 21:36:26 39° N 21:42:25 10° NW
Cosmos 1544 3.1 21:33:25 10° N 21:37:00 59° E 21:37:03 59° E
SPOT 5 3.6 21:38:33 29° SSW 21:40:53 51° W 21:46:02 10° NNW
Cosmos 1610 Rocket 4.4 21:35:13 10° N 21:41:22 85° W 21:44:05 36° S
ERBS 4.3 21:39:13 10° NNW 21:41:59 24° NNE 21:43:16 19° ENE
Cosmos 2082 Rocket 2.3 21:38:16 10° NNW 21:43:50 64° WSW 21:45:50 39° S
Resurs 01 Rocket 4.5 21:43:22 10° W 21:44:05 10° W 21:44:49 10° WNW
Cosmos 158 Rocket 4.2 21:40:36 10° NNW 21:45:22 54° WSW 21:46:51 38° SSW
Cosmos 2112 Rocket 4.1 21:41:13 10° NNW 21:46:35 74° ENE 21:48:11 46° SE
Cosmos 2228 Rocket 3.4 21:45:34 36° SW 21:47:14 63° W 21:51:42 10° N
Cosmos 44 3.6 21:44:50 10° NNW 21:50:17 68° NE 21:51:59 43° ESE
Cosmos 1271 Rocket 4.3 21:54:21 21° WSW 21:56:22 33° WNW 22:00:01 10° N
Cosmos 2084 Rocket 4.0 21:54:08 10° NNW 21:58:19 51° NE 21:59:14 43° E
BREEZE-M DEB (TANK) 4.4 21:54:53 10° W 22:01:17 37° NNW 22:03:26 14° NE
Meteor 1-27 Rocket 4.1 21:58:45 29° SSW 22:01:50 66° WNW 22:07:45 10° N
Cosmos 2341 Rocket 4.0 21:55:30 10° N 22:01:56 76° E 22:04:08 44° SSE
Cosmos 1515 4.0 22:04:29 54° ENE 22:04:29 54° ENE 22:07:44 10° NNE
USA 305 4.0 22:04:11 10° WNW 22:07:27 32° WSW 22:07:27 32° WSW
Cosmos 2278 Rocket 3.7 22:03:47 10° WSW 22:08:53 34° NW 22:14:02 10° NNE
Cosmos 1937 Rocket 3.4 22:09:32 59° SSE 22:10:16 68° ESE 22:15:25 10° NNE
Cosmos 1862 Rocket 3.8 22:10:39 53° E 22:10:39 53° E 22:14:44 10° NNE
Milstar 3 4.5 22:03:24 10° WSW 22:10:46 24° SSW 22:10:46 24° SSW
SL-24 R/B - RUBIN 2 3.8 22:06:46 10° NW 22:12:18 84° SW 22:13:07 63° SSE
Cosmos 1680 Rocket 3.8 22:08:28 10° NNW 22:13:43 59° WSW 22:14:52 48° SSW
Cosmos 1943 Rocket 2.2 22:13:55 54° SSE 22:14:53 63° ESE 22:20:25 10° NNE
Cosmos 2218 Rocket 4.1 22:10:09 10° N 22:16:25 65° ENE 22:18:16 45° SE
Cosmos 2369 Rocket 2.9 22:17:10 36° ESE 22:17:10 36° ESE 22:22:14 10° NE
Centaur D AC-29 4.5 21:41:17 10° WSW 22:18:41 28° SSW 22:20:13 27° S
Meteor 1-19 Rocket 4.1 22:19:24 56° SE 22:20:13 63° E 22:25:34 10° NNE
Gbstr 26 Del rocket 4.1 22:13:00 10° WNW 22:20:27 79° NNE 22:23:48 30° ESE
Cosmos 1238 Rocket 3.7 22:17:43 10° N 22:23:58 89° W 22:25:13 57° S
Cosmos 858 Rocket 4.4 22:24:20 60° SSW 22:25:19 86° ESE 22:30:35 10° NNE
CZ-4C R/B 4.4 22:19:49 10° WNW 22:25:45 25° WSW 22:28:58 20° SW
Meteor 2-9 Rocket 4.2 22:21:33 10° N 22:27:23 80° E 22:28:36 57° SSE
Okean 1 3.4 22:29:36 76° NNW 22:29:36 76° NNW 22:33:22 10° N
Okean 1-7 4.3 22:31:00 28° ENE 22:31:00 28° ENE 22:34:08 10° NNE
Cosmos 1340 Rocket 3.9 22:27:11 10° NNW 22:30:58 36° W 22:31:03 36° W
Cosmos 1818 3.5 22:27:46 10° NW 22:33:17 86° SW 22:34:12 63° SSE
Cosmos 1707 Rocket 4.2 22:32:59 43° WSW 22:33:42 47° WNW 22:37:59 10° N
DNEPR-1 R/B 4.0 22:34:45 48° SW 22:36:25 89° SE 22:41:25 10° NE
SL-8 Rocket 4.0 22:33:28 10° NNW 22:39:47 75° W 22:41:32 50° SSW
ALOS 2 2.8 22:41:06 60° ENE 22:41:11 60° ENE 22:45:31 10° N
Meteor 2-4 Rocket 3.8 22:47:04 57° SE 22:47:54 64° E 22:53:28 10° NNE
Cosmos 1743 4.4 22:46:29 10° NNW 22:49:32 26° W 22:49:32 26° W
Cosmos 1898 Rocket 4.4 22:47:29 27° WSW 22:49:56 44° WNW 22:55:02 10° NNE
SL-27 R/B 4.3 22:51:37 10° N 22:53:51 24° NE 22:53:51 24° NE
BREEZE-M DEB (TANK) 4.2 22:41:19 10° WNW 22:56:54 85° SSW 22:58:40 45° ESE
SL-08 R/B 4.5 22:50:46 10° N 22:57:00 75° E 22:58:29 54° SSE
Cosmos 1975 3.4 22:57:07 10° NNW 23:00:28 52° WNW 23:00:28 52° WNW
SJ 16-02 4.3 23:00:46 10° WNW 23:01:58 11° NW 23:03:10 10° NNW
RESURS DK-1 2.9 22:59:30 10° NNW 23:03:31 51° NE 23:03:31 51° NE
Cosmos 2150 Rocket 4.4 23:04:29 50° ESE 23:04:31 50° ESE 23:09:39 10° NNE
Cosmos 1733 Rocket 4.3 23:01:07 10° NNW 23:04:54 30° W 23:04:54 30° W
Cosmos 1461 3.2 23:07:22 70° W 23:07:40 74° NW 23:12:18 10° NNE
Cosmos 372 Rocket 4.0 23:07:02 61° WSW 23:07:45 71° WNW 23:12:52 10° NNE
Cosmos 1833 4.5 23:02:12 10° NNW 23:07:56 64° ENE 23:09:23 48° ESE
Cosmos 2242 Rocket 3.6 23:09:01 77° NE 23:09:01 77° NE 23:13:15 10° N
SeaSat 1 3.5 23:04:43 10° NE 23:08:32 31° E 23:08:32 31° E
ISS -1.1 23:18:16 14° ENE 23:18:16 14° ENE 23:18:53 10° ENE
Cosmos 468 4.4 23:12:37 10° NNW 23:17:56 84° ENE 23:18:27 73° SE
USA 215 3.4 23:13:57 18° ESE 23:18:55 71° NNE 23:25:26 10° NW
Cosmos 494 Rocket 4.1 23:14:15 10° NNW 23:19:26 66° ENE 23:20:07 59° ESE
Cosmos 1908 Rocket 3.9 23:15:33 10° NNW 23:19:43 56° W 23:19:43 56° W
Okean 2 Rocket 4.3 23:19:40 10° N 23:23:36 31° ENE 23:23:56 31° E
ATLAS 2AS CENTAUR R/B 3.7 23:17:45 10° NW 23:23:44 29° WSW 23:24:29 28° WSW
Nimbus 7 Rocket 4.3 23:19:34 10° NNE 23:25:29 87° ESE 23:26:37 61° S
Cosmos 1867 3.4 23:25:56 73° SSE 23:26:20 78° ESE 23:31:49 10° NE
Cosmos 1125 Rocket 3.6 23:26:49 60° ESE 23:26:56 61° ESE 23:32:05 10° NNE
Cosmos 44 Rocket 4.2 23:24:20 10° NNW 23:29:24 47° NE 23:31:23 32° E
Cosmos 1378 4.0 23:34:53 48° NNE 23:34:53 48° NNE 23:37:39 10° N
ATLAS CENTAUR R/B 2.5 23:38:29 34° NE 23:38:29 34° NE 23:40:48 10° NE
Cosmos 2344 4.3 23:30:32 10° NW 23:39:46 84° NE 23:51:08 15° SE
Cosmos 1821 Rocket 4.0 23:33:40 10° NNW 23:40:03 71° W 23:41:25 55° SSW
Cosmos 1934 Rocket 4.0 23:34:33 10° N 23:40:42 69° E 23:42:10 51° SE
USA 281 4.4 23:36:59 12° ESE 23:42:22 37° NE 23:48:17 10° NNW
Cosmos 1703 Rocket 4.4 23:48:52 41° WNW 23:48:53 41° WNW 23:53:04 10° N
Okean 3 3.6 23:50:46 69° NW 23:50:46 69° NW 23:54:40 10° N
Cosmos 1782 Rocket 4.2 23:47:28 10° NNW 23:51:22 46° WNW 23:51:22 46° WNW
Lacrosse 5 3.1 23:54:51 28° ESE 23:54:51 28° ESE 23:58:15 10° ENE
